Location: Newark
(44.4156°N, 12.1972°E)
Time: 00:14:56
(UTC+00:00)

STARLINK-1094 - Pass Details

Date: 02 February 2020
Orbit: 348 x 351 km, 53.0° (Epoch: 17 February)

Event Time Altitude Azimuth Distance (km) Brightness Sun altitude
Rises 17:50:54 0° 293° (WNW) 2,171 7.7 -16.3°
Reaches altitude 10° 17:53:14 10° 275° (W) 1,324 6.8 -16.7°
Maximum altitude 17:55:27 19° 226° (SW) 909 5.4 -17.1°
Drops below altitude 10° 17:57:40 10° 177° (S) 1,318 5.6 -17.4°
Enters shadow 17:58:37 - 167° (SSE) 1,639 6.0 -17.6°
